FW7661 Weather Reports


time (UTC)temp
C
wind
direction
speed
KPH
gust
KPH
rain 1hr
cm
rain 24hr
cm
rain mn
cm
humidity
%
barometer
mb
20260503210058 25 280 6.4 17.7 0.00 0.00 0.00 46 1011.6
20260503204555 25 295 6.4 17.7 0.00 0.00 0.00 48 1011.8
20260503203049 24 302 8.0 16.1 0.00 0.00 0.00 48 1012.0
20260503201548 25 319 3.2 16.1 0.00 0.00 0.00 50 1012.2
20260503200057 23 296 6.4 14.5 0.00 0.00 0.00 51 1012.3
20260503194553 23 293 8.0 16.1 0.00 0.00 0.00 51 1012.6
20260503193055 23 297 6.4 14.5 0.00 0.00 0.00 52 1012.8
20260503191558 22 297 8.0 14.5 0.00 0.00 0.00 55 1012.8
20260503190049 22 295 8.0 14.5 0.00 0.00 0.00 56 1012.9
20260503184555 22 285 6.4 11.3 0.00 0.00 0.00 58 1013.2
20260503183111 21 273 6.4 12.9 0.00 0.00 0.00 58 1013.3
20260503181555 21 314 6.4 11.3 0.00 0.00 0.00 59 1013.4
20260503180049 20 301 4.8 16.1 0.00 0.00 0.00 60 1013.1
20260503174550 20 326 6.4 12.9 0.00 0.00 0.00 61 1014.1
20260503173116 20 319 8.0 11.3 0.00 0.00 0.00 61 1014.2
20260503171557 20 357 4.8 11.3 0.00 0.00 0.00 65 1014.4
20260503120111 12 0 0.0 0.0 0.00 0.00 0.00 88 1014.3
20260503081549 14 0 0.0 0.0 0.00 0.00 0.00 73 1014.6
20260503071554 16 0 0.0 0.0 0.00 0.00 0.00 65 1014.6
20260503070105 16 0 0.0 0.0 0.00 0.00 0.00 63 1014.6
20260503054552 17 0 0.0 0.0 0.00 0.00 0.00 58 1014.3
20260503053058 17 0 0.0 0.0 0.00 0.00 0.00 58 1014.5
20260503051555 18 309 3.2 8.0 0.00 0.00 0.00 55 1014.2
20260503050049 18 305 3.2 8.0 0.00 0.00 0.00 56 1014.2
20260503044551 18 315 1.6 8.0 0.00 0.00 0.00 59 1014.1
20260503043049 18 321 1.6 4.8 0.00 0.00 0.00 62 1014.0
20260503041605 19 327 1.6 4.8 0.00 0.00 0.00 62 1014.0
20260503040058 19 307 3.2 4.8 0.00 0.00 0.00 62 1013.8
20260503034605 20 330 4.8 8.0 0.00 0.00 0.00 61 1013.4
20260503033056 20 304 6.4 11.3 0.00 0.00 0.00 60 1013.4
20260503031552 20 303 6.4 14.5 0.00 0.00 0.00 59 1013.2
20260503030056 21 306 8.0 16.1 0.00 0.00 0.00 58 1013.1
20260503024552 21 309 6.4 17.7 0.00 0.00 0.00 58 1013.0
20260503023049 22 342 6.4 17.7 0.00 0.00 0.00 58 1012.9
20260503021546 22 316 6.4 16.1 0.00 0.00 0.00 57 1012.9
20260503020053 22 330 8.0 12.9 0.00 0.00 0.00 54 1012.9
20260503014554 23 298 9.7 16.1 0.00 0.00 0.00 53 1012.8
20260503013054 23 298 6.4 14.5 0.00 0.00 0.00 54 1012.9
20260503011548 23 312 6.4 16.1 0.00 0.00 0.00 54 1013.0
20260503010048 23 292 8.0 20.9 0.00 0.00 0.00 54 1013.0
20260503004546 22 266 9.7 19.3 0.00 0.00 0.00 54 1012.9
20260503003051 23 300 9.7 20.9 0.00 0.00 0.00 53 1013.0
20260503001608 23 293 3.2 19.3 0.00 0.00 0.00 54 1013.0
20260503000109 23 342 9.7 22.5 0.00 0.00 0.00 54 1013.2
20260502234555 23 307 6.4 22.5 0.00 0.00 0.00 55 1013.4
20260502233102 22 333 9.7 19.3 0.00 0.00 0.00 56 1013.4
20260502231605 22 290 9.7 19.3 0.00 0.00 0.00 57 1013.7
20260502230052 22 338 8.0 22.5 0.00 0.00 0.00 59 1013.7
20260502224600 22 349 12.9 20.9 0.00 0.00 0.00 61 1013.9
20260502223055 21 302 11.3 20.9 0.00 0.00 0.00 62 1014.0
20260502221559 21 277 6.4 20.9 0.00 0.00 0.00 61 1014.2
20260502214602 21 2 8.0 14.5 0.00 0.00 0.00 61 1014.3
20260502213051 21 270 8.0 16.1 0.00 0.00 0.00 60 1014.5
20260502211553 21 319 6.4 14.5 0.00 0.00 0.00 63 1014.7